Year,Month,Day,Hour,Minute,Value (Times are PST for temperature in C)
2007,10,23,00,00,11.10
2007,10,23,00,01,11.20
2007,10,23,00,02,11.20
2007,10,23,00,03,11.20
2007,10,23,00,04,11.20
2007,10,23,00,05,11.20
2007,10,23,00,06,11.20
2007,10,23,00,07,11.20
2007,10,23,00,08,11.20
2007,10,23,00,09,11.20
2007,10,23,00,10,11.20
2007,10,23,00,11,11.20
2007,10,23,00,12,11.20
2007,10,23,00,13,11.20
2007,10,23,01,02,11.70
2007,10,23,01,03,11.70
2007,10,23,01,04,11.80
2007,10,23,01,05,11.80
2007,10,23,01,06,11.80
2007,10,23,01,07,11.80
2007,10,23,01,08,11.90
2007,10,23,01,09,11.90
2007,10,23,01,10,11.90
2007,10,23,01,11,12.00
2007,10,23,01,12,12.00
2007,10,23,01,13,12.00
2007,10,23,01,14,12.00
2007,10,23,01,15,12.00
2007,10,23,01,16,12.00
2007,10,23,01,17,12.10
2007,10,23,01,18,12.10
2007,10,23,01,19,12.10
2007,10,23,01,20,12.10
2007,10,23,01,21,12.10
2007,10,23,01,22,12.10
2007,10,23,01,23,12.10
2007,10,23,01,24,12.10
2007,10,23,01,25,12.10
2007,10,23,01,26,12.10
2007,10,23,01,27,12.10
2007,10,23,01,28,12.10
2007,10,23,01,29,12.10
2007,10,23,01,30,12.10
2007,10,23,01,31,12.10
2007,10,23,01,32,12.10
2007,10,23,01,33,12.00
2007,10,23,01,34,12.00
2007,10,23,01,35,12.00
2007,10,23,01,36,12.00
2007,10,23,01,37,12.00
2007,10,23,01,38,12.00
2007,10,23,01,39,12.00
2007,10,23,01,40,12.00
2007,10,23,01,41,12.10
2007,10,23,01,42,12.10
2007,10,23,01,43,12.10
2007,10,23,01,44,12.10
2007,10,23,01,45,12.10
2007,10,23,01,46,12.10
2007,10,23,01,47,12.10
2007,10,23,01,48,12.10
2007,10,23,01,49,12.10
2007,10,23,01,50,12.10
2007,10,23,01,51,12.10
2007,10,23,01,52,12.10
2007,10,23,01,53,12.10
2007,10,23,01,54,12.10
2007,10,23,01,55,12.10
2007,10,23,01,56,12.10
2007,10,23,01,57,12.10
2007,10,23,01,58,12.10
2007,10,23,01,59,12.10
2007,10,23,02,00,12.10
2007,10,23,02,01,12.10
2007,10,23,02,02,12.10
2007,10,23,02,03,12.10
2007,10,23,02,04,12.00
2007,10,23,02,05,12.00
2007,10,23,02,06,12.00
2007,10,23,02,07,12.00
2007,10,23,02,08,12.00
2007,10,23,02,09,11.90
2007,10,23,02,10,11.90
2007,10,23,02,11,11.90
2007,10,23,02,12,11.90
2007,10,23,02,13,11.90
2007,10,23,02,14,11.90
2007,10,23,02,15,11.90
2007,10,23,02,16,11.90
2007,10,23,02,17,11.90
2007,10,23,02,18,11.90
2007,10,23,02,19,11.90
2007,10,23,02,20,11.90
2007,10,23,02,21,11.90
2007,10,23,02,22,11.90
2007,10,23,02,23,12.00
2007,10,23,02,24,12.00
2007,10,23,02,25,12.00
2007,10,23,02,26,12.10
2007,10,23,02,27,12.10
2007,10,23,02,28,12.10
2007,10,23,02,29,12.20
2007,10,23,02,30,12.20
2007,10,23,02,31,12.20
2007,10,23,02,32,12.20
2007,10,23,02,33,12.20
2007,10,23,02,34,12.20
2007,10,23,02,35,12.20
2007,10,23,02,36,12.30
2007,10,23,02,37,12.30
2007,10,23,02,38,12.30
2007,10,23,02,39,12.30
2007,10,23,02,40,12.30
2007,10,23,02,41,12.30
2007,10,23,02,42,12.30
2007,10,23,02,43,12.20
2007,10,23,02,44,12.20
2007,10,23,02,45,12.20
2007,10,23,02,46,12.20
2007,10,23,02,47,12.20
2007,10,23,02,48,12.20
2007,10,23,02,49,12.20
2007,10,23,02,50,12.20
2007,10,23,02,51,12.20
2007,10,23,02,52,12.10
2007,10,23,02,53,12.10
2007,10,23,02,54,12.10
2007,10,23,02,55,12.10
2007,10,23,02,56,12.10
2007,10,23,02,57,12.10
2007,10,23,02,58,12.10
2007,10,23,02,59,12.10
2007,10,23,03,00,12.10
2007,10,23,03,01,12.10
2007,10,23,03,02,12.20
2007,10,23,03,03,12.20
2007,10,23,03,04,12.10
2007,10,23,03,05,12.10
2007,10,23,03,06,12.10
2007,10,23,03,07,12.10
2007,10,23,03,08,12.10
2007,10,23,03,09,12.00
2007,10,23,03,10,12.00
2007,10,23,03,11,12.00
2007,10,23,03,12,12.00
2007,10,23,03,13,12.00
2007,10,23,03,14,12.00
2007,10,23,03,15,12.00
2007,10,23,03,16,12.00
2007,10,23,03,17,12.00
2007,10,23,03,18,12.00
2007,10,23,03,19,12.00
2007,10,23,03,20,12.00
2007,10,23,03,21,12.00
2007,10,23,03,22,12.00
2007,10,23,03,23,12.00
2007,10,23,03,24,12.00
2007,10,23,03,25,11.90
2007,10,23,03,26,11.90
2007,10,23,03,27,11.90
2007,10,23,03,28,11.90
2007,10,23,03,29,11.90
2007,10,23,03,30,11.90
2007,10,23,03,31,11.90
2007,10,23,03,32,11.90
2007,10,23,03,33,11.80
2007,10,23,03,34,11.80
2007,10,23,03,35,11.80
2007,10,23,03,36,11.80
2007,10,23,03,37,11.80
2007,10,23,03,38,11.80
2007,10,23,03,39,11.80
2007,10,23,03,40,11.80
2007,10,23,03,41,11.80
2007,10,23,03,42,11.80
2007,10,23,03,43,11.80
2007,10,23,03,44,11.80
2007,10,23,03,45,11.80
2007,10,23,03,46,11.80
2007,10,23,03,47,11.70
2007,10,23,03,48,11.70
2007,10,23,03,49,11.60
2007,10,23,03,50,11.60
2007,10,23,03,51,11.50
2007,10,23,03,52,11.50
2007,10,23,03,53,11.50
2007,10,23,03,54,11.50
2007,10,23,03,55,11.50
2007,10,23,03,56,11.40
2007,10,23,03,57,11.40
2007,10,23,03,58,11.40
2007,10,23,03,59,11.40
2007,10,23,04,00,11.40
2007,10,23,04,01,11.40
2007,10,23,04,02,11.40
2007,10,23,04,03,11.40
2007,10,23,04,04,11.40
2007,10,23,04,05,11.40
2007,10,23,04,06,11.40
2007,10,23,04,07,11.40
2007,10,23,04,08,11.40
2007,10,23,04,09,11.40
2007,10,23,04,10,11.40
2007,10,23,04,11,11.30
2007,10,23,04,12,11.30
2007,10,23,04,13,11.30
2007,10,23,04,14,11.30
2007,10,23,04,15,11.30
2007,10,23,04,16,11.30
2007,10,23,04,17,11.30
2007,10,23,04,18,11.30
2007,10,23,04,19,11.30
2007,10,23,04,20,11.30
2007,10,23,04,21,11.30
2007,10,23,04,22,11.20
2007,10,23,04,23,11.20
2007,10,23,04,24,11.20
2007,10,23,04,25,11.20
2007,10,23,04,26,11.10
2007,10,23,04,27,11.10
2007,10,23,04,28,11.10
2007,10,23,04,29,11.10
2007,10,23,04,30,11.10
2007,10,23,04,31,11.10
2007,10,23,04,32,11.00
2007,10,23,04,33,11.00
2007,10,23,04,34,11.00
2007,10,23,04,35,11.00
2007,10,23,04,36,10.90
2007,10,23,04,37,10.90
2007,10,23,04,38,10.90
2007,10,23,04,39,10.90
2007,10,23,04,40,10.90
2007,10,23,04,41,10.90
2007,10,23,04,42,10.90
2007,10,23,04,43,10.90
2007,10,23,04,44,10.90
2007,10,23,04,45,10.90
2007,10,23,04,46,10.90
2007,10,23,04,47,10.90
2007,10,23,04,48,10.90
2007,10,23,04,49,10.90
2007,10,23,04,50,10.90
2007,10,23,04,51,10.90
2007,10,23,04,52,11.00
2007,10,23,04,53,11.10
2007,10,23,04,54,11.10
2007,10,23,04,55,11.10
2007,10,23,04,56,11.10
2007,10,23,04,57,11.00
2007,10,23,04,58,11.10
2007,10,23,04,59,11.10
2007,10,23,05,00,11.00
2007,10,23,05,01,11.00
2007,10,23,05,02,11.00
2007,10,23,05,03,11.00
2007,10,23,05,04,11.00
2007,10,23,05,05,11.00
2007,10,23,05,06,11.00
2007,10,23,05,07,11.00
2007,10,23,05,08,11.10
2007,10,23,05,09,11.10
2007,10,23,05,10,11.10
2007,10,23,05,11,11.10
2007,10,23,05,12,11.10
2007,10,23,05,13,11.10
2007,10,23,05,14,11.10
2007,10,23,05,15,11.10
2007,10,23,05,16,11.10
2007,10,23,05,17,11.10
2007,10,23,05,18,11.10
2007,10,23,05,19,11.10
2007,10,23,05,20,11.00
2007,10,23,05,21,11.00
2007,10,23,05,22,11.10
2007,10,23,05,23,11.10
2007,10,23,05,24,11.10
2007,10,23,05,25,11.10
2007,10,23,05,26,11.10
2007,10,23,05,27,11.10
2007,10,23,05,28,11.10
2007,10,23,05,29,11.10
2007,10,23,05,30,11.10
2007,10,23,05,31,11.10
2007,10,23,05,32,11.10
2007,10,23,05,33,11.00
2007,10,23,05,34,11.00
2007,10,23,05,35,11.10
2007,10,23,05,36,11.10
2007,10,23,05,37,11.10
2007,10,23,05,38,11.10
2007,10,23,05,39,11.10
2007,10,23,05,40,11.10
2007,10,23,05,41,11.10
2007,10,23,05,42,11.10
2007,10,23,05,43,11.10
2007,10,23,05,44,11.00
2007,10,23,05,45,11.00
2007,10,23,05,46,10.90
2007,10,23,05,47,10.90
2007,10,23,05,48,10.90
2007,10,23,05,49,10.90
2007,10,23,05,50,10.90
2007,10,23,05,51,10.80
2007,10,23,05,52,10.80
2007,10,23,05,53,10.90
2007,10,23,05,54,10.90
2007,10,23,05,55,10.80
2007,10,23,05,56,10.80
2007,10,23,05,57,10.80
2007,10,23,05,58,10.80
2007,10,23,05,59,10.70
2007,10,23,06,00,10.70
2007,10,23,06,01,10.80
2007,10,23,06,02,10.80
2007,10,23,06,03,10.80
2007,10,23,06,04,10.80
2007,10,23,06,05,10.80
2007,10,23,06,06,10.80
2007,10,23,06,07,10.80
2007,10,23,06,08,10.80
2007,10,23,06,09,10.80
2007,10,23,06,10,10.80
2007,10,23,06,11,10.80
2007,10,23,06,12,10.80
2007,10,23,06,13,10.80
2007,10,23,06,14,10.70
2007,10,23,06,15,10.70
2007,10,23,06,16,10.70
2007,10,23,06,17,10.70
2007,10,23,06,18,10.70
2007,10,23,06,19,10.70
2007,10,23,06,20,10.70
2007,10,23,06,21,10.80
2007,10,23,06,22,10.80
2007,10,23,06,23,10.80
2007,10,23,06,24,10.80
2007,10,23,06,25,10.80
2007,10,23,06,26,10.80
2007,10,23,06,27,10.80
2007,10,23,06,28,10.80
2007,10,23,06,29,10.80
2007,10,23,06,30,10.80
2007,10,23,06,31,10.80
2007,10,23,06,32,10.80
2007,10,23,06,33,10.80
2007,10,23,06,34,10.80
2007,10,23,06,35,10.70
2007,10,23,06,36,10.70
2007,10,23,06,37,10.70
2007,10,23,06,38,10.70
2007,10,23,06,39,10.70
2007,10,23,06,40,10.70
2007,10,23,06,41,10.60
2007,10,23,06,42,10.60
2007,10,23,06,43,10.60
2007,10,23,06,44,10.50
2007,10,23,06,45,10.50
2007,10,23,06,46,10.50
2007,10,23,06,47,10.50
2007,10,23,06,48,10.50
2007,10,23,06,49,10.50
2007,10,23,06,50,10.40
2007,10,23,06,51,10.40
2007,10,23,06,52,10.40
2007,10,23,06,53,10.40
2007,10,23,06,54,10.30
2007,10,23,06,55,10.30
2007,10,23,06,56,10.30
2007,10,23,06,57,10.30
2007,10,23,06,58,10.30
2007,10,23,06,59,10.30
2007,10,23,07,00,10.30
2007,10,23,07,01,10.40
2007,10,23,07,02,10.40
2007,10,23,07,03,10.40
2007,10,23,07,04,10.40
2007,10,23,07,05,10.40
2007,10,23,07,06,10.40
2007,10,23,07,07,10.40
2007,10,23,07,08,10.30
2007,10,23,07,09,10.30
2007,10,23,07,10,10.30
2007,10,23,07,11,10.30
2007,10,23,07,12,10.30
2007,10,23,07,13,10.20
2007,10,23,07,14,10.30
2007,10,23,07,15,10.30
2007,10,23,07,16,10.20
2007,10,23,07,17,10.20
2007,10,23,07,18,10.20
2007,10,23,07,19,10.20
2007,10,23,07,20,10.20
2007,10,23,07,21,10.10
2007,10,23,07,22,10.10
2007,10,23,07,23,10.10
2007,10,23,07,24,10.10
2007,10,23,07,25,10.20
2007,10,23,07,26,10.20
2007,10,23,07,27,10.20
2007,10,23,07,28,10.20
2007,10,23,07,29,10.20
2007,10,23,07,30,10.20
2007,10,23,07,31,10.20
2007,10,23,07,32,10.20
2007,10,23,07,33,10.10
2007,10,23,07,34,10.10
2007,10,23,07,35,10.10
2007,10,23,07,36,10.10
2007,10,23,07,37,10.20
2007,10,23,07,38,10.10
2007,10,23,07,39,10.10
2007,10,23,07,40,10.10
2007,10,23,07,41,10.10
2007,10,23,07,42,10.10
2007,10,23,07,43,10.10
2007,10,23,07,44,10.20
2007,10,23,07,45,10.20
2007,10,23,07,46,10.20
2007,10,23,07,47,10.20
2007,10,23,07,48,10.20
2007,10,23,07,49,10.20
2007,10,23,07,50,10.20
2007,10,23,07,51,10.20
2007,10,23,07,52,10.20
2007,10,23,07,53,10.20
2007,10,23,07,54,10.20
2007,10,23,07,55,10.20
2007,10,23,07,56,10.20
2007,10,23,07,57,10.20
2007,10,23,07,58,10.20
2007,10,23,07,59,10.20
2007,10,23,08,00,10.30
2007,10,23,08,01,10.30
2007,10,23,08,02,10.30
2007,10,23,08,03,10.30
2007,10,23,08,04,10.30
2007,10,23,08,05,10.30
2007,10,23,08,06,10.40
2007,10,23,08,07,10.30
2007,10,23,08,08,10.40
2007,10,23,08,09,10.40
2007,10,23,08,10,10.40
2007,10,23,08,11,10.40
2007,10,23,08,12,10.40
2007,10,23,08,13,10.40
2007,10,23,08,14,10.40
2007,10,23,08,15,10.40
2007,10,23,08,16,10.40
2007,10,23,08,17,10.30
2007,10,23,08,18,10.30
2007,10,23,08,19,10.30
2007,10,23,08,20,10.40
2007,10,23,08,21,10.40
2007,10,23,08,22,10.40
2007,10,23,08,23,10.40
2007,10,23,08,24,10.40
2007,10,23,08,25,10.40
2007,10,23,08,26,10.40
2007,10,23,08,27,10.40
2007,10,23,08,28,10.40
2007,10,23,08,29,10.40
2007,10,23,08,30,10.30
2007,10,23,08,31,10.30
2007,10,23,08,32,10.30
2007,10,23,08,33,10.30
2007,10,23,08,34,10.40
2007,10,23,08,35,10.40
2007,10,23,08,36,10.40
2007,10,23,08,37,10.40
2007,10,23,08,38,10.40
2007,10,23,08,39,10.50
2007,10,23,08,40,10.60
2007,10,23,08,41,10.60
2007,10,23,08,42,10.60
2007,10,23,08,43,10.60
2007,10,23,08,44,10.60
2007,10,23,08,45,10.60
2007,10,23,08,46,10.60
2007,10,23,08,47,10.60
2007,10,23,08,48,10.60
2007,10,23,08,49,10.60
2007,10,23,08,50,10.60
2007,10,23,08,51,10.60
2007,10,23,08,52,10.60
2007,10,23,08,53,10.60
2007,10,23,08,54,10.60
2007,10,23,08,55,10.70
2007,10,23,08,56,10.70
2007,10,23,08,57,10.70
2007,10,23,08,58,10.70
2007,10,23,08,59,10.70
2007,10,23,09,00,10.70
2007,10,23,09,01,10.70
2007,10,23,09,02,10.70
2007,10,23,09,03,10.70
2007,10,23,09,04,10.70
2007,10,23,09,05,10.70
2007,10,23,09,06,10.70
2007,10,23,09,07,10.70
2007,10,23,09,08,10.70
2007,10,23,09,09,10.70
2007,10,23,09,10,10.60
2007,10,23,09,11,10.60
2007,10,23,09,12,10.60
2007,10,23,09,13,10.70
2007,10,23,09,14,10.80
2007,10,23,09,15,10.80
2007,10,23,09,16,10.80
2007,10,23,09,17,10.90
2007,10,23,09,18,10.90
2007,10,23,09,19,10.90
2007,10,23,09,20,10.80
2007,10,23,09,21,10.90
2007,10,23,09,22,10.90
2007,10,23,09,23,10.90
2007,10,23,09,24,11.00
2007,10,23,09,25,11.00
2007,10,23,09,26,11.00
2007,10,23,09,27,11.00
2007,10,23,09,28,10.90
2007,10,23,09,29,10.90
2007,10,23,09,30,10.90
2007,10,23,09,31,10.90
2007,10,23,09,32,10.90
2007,10,23,09,33,10.90
2007,10,23,09,34,10.90
2007,10,23,09,35,10.90
2007,10,23,09,36,10.90
2007,10,23,09,37,10.90
2007,10,23,09,38,10.90
2007,10,23,09,39,10.90
2007,10,23,09,40,11.00
2007,10,23,09,41,11.00
2007,10,23,09,42,11.10
2007,10,23,09,43,11.10
2007,10,23,09,44,11.10
2007,10,23,09,45,11.20
2007,10,23,09,46,11.20
2007,10,23,09,47,11.30
2007,10,23,09,48,11.30
2007,10,23,09,49,11.30
2007,10,23,09,50,11.30
2007,10,23,09,51,11.30
2007,10,23,09,52,11.30
2007,10,23,09,53,11.30
2007,10,23,09,54,11.30
2007,10,23,09,55,11.30
2007,10,23,09,56,11.40
2007,10,23,09,57,11.40
2007,10,23,09,58,11.40
2007,10,23,09,59,11.40
2007,10,23,10,00,11.40
2007,10,23,10,01,11.50
2007,10,23,10,02,11.50
2007,10,23,10,03,11.60
2007,10,23,10,04,11.60
2007,10,23,10,05,11.60
2007,10,23,10,06,11.50
2007,10,23,10,07,11.50
2007,10,23,10,08,11.50
2007,10,23,10,09,11.40
2007,10,23,10,10,11.40
2007,10,23,10,11,11.40
2007,10,23,10,12,11.40
2007,10,23,10,13,11.40
2007,10,23,10,14,11.30
2007,10,23,10,15,11.30
2007,10,23,10,16,11.30
2007,10,23,10,17,11.30
2007,10,23,10,18,11.30
2007,10,23,10,19,11.30
2007,10,23,10,20,11.30
2007,10,23,10,21,11.30
2007,10,23,10,22,11.40
2007,10,23,10,23,11.40
2007,10,23,10,24,11.40
2007,10,23,10,25,11.50
2007,10,23,10,26,11.50
2007,10,23,10,27,11.60
2007,10,23,10,28,11.60
2007,10,23,10,29,11.60
2007,10,23,10,30,11.60
2007,10,23,10,31,11.70
2007,10,23,10,32,11.70
2007,10,23,10,33,11.70
2007,10,23,10,34,11.70
2007,10,23,10,35,11.80
2007,10,23,10,36,11.80
2007,10,23,10,37,11.80
2007,10,23,10,38,11.90
2007,10,23,10,39,11.90
2007,10,23,10,40,12.00
2007,10,23,10,41,12.00
2007,10,23,10,42,12.10
2007,10,23,10,43,12.20
2007,10,23,10,44,12.20
2007,10,23,10,45,12.30
2007,10,23,10,46,12.40
2007,10,23,10,47,12.50
2007,10,23,10,48,12.70
2007,10,23,10,49,12.80
2007,10,23,10,50,12.90
2007,10,23,10,51,13.00
2007,10,23,10,52,13.10
2007,10,23,10,53,13.20
2007,10,23,10,54,13.30
2007,10,23,10,55,13.40
2007,10,23,10,56,13.40
2007,10,23,10,57,13.40
2007,10,23,10,58,13.40
2007,10,23,10,59,13.50
2007,10,23,11,00,13.50
2007,10,23,11,01,13.60
2007,10,23,11,02,13.60
2007,10,23,11,03,13.70
2007,10,23,11,04,13.80
2007,10,23,11,05,13.90
2007,10,23,11,06,13.90
2007,10,23,11,07,14.00
2007,10,23,11,08,14.10
2007,10,23,11,09,14.10
2007,10,23,11,10,14.20
2007,10,23,11,11,14.20
2007,10,23,11,12,14.20
2007,10,23,11,13,14.30
2007,10,23,11,14,14.30
2007,10,23,11,15,14.30
2007,10,23,11,16,14.30
2007,10,23,11,17,14.30
2007,10,23,11,18,14.30
2007,10,23,11,19,14.40
2007,10,23,11,20,14.40
2007,10,23,11,21,14.40
2007,10,23,11,22,14.50
2007,10,23,11,23,14.50
2007,10,23,11,24,14.60
2007,10,23,11,25,14.70
2007,10,23,11,26,14.80
2007,10,23,11,27,14.90
2007,10,23,11,28,15.00
2007,10,23,11,29,15.00
2007,10,23,11,30,15.00
2007,10,23,11,31,15.10
2007,10,23,11,32,15.20
2007,10,23,11,33,15.40
2007,10,23,11,34,15.40
2007,10,23,11,35,15.50
2007,10,23,11,36,15.60
2007,10,23,11,37,15.60
2007,10,23,11,38,15.70
2007,10,23,11,39,15.80
2007,10,23,11,40,15.80
2007,10,23,11,41,15.90
2007,10,23,11,42,15.90
2007,10,23,11,43,15.90
2007,10,23,11,44,15.90
2007,10,23,11,45,15.90
2007,10,23,11,46,15.90
2007,10,23,11,47,16.00
2007,10,23,11,48,16.00
2007,10,23,11,49,16.20
2007,10,23,11,50,16.30
2007,10,23,11,51,16.30
2007,10,23,11,52,16.40
2007,10,23,11,53,16.40
2007,10,23,11,54,16.40
2007,10,23,11,55,16.40
2007,10,23,11,56,16.40
2007,10,23,11,57,16.40
2007,10,23,11,58,16.40
2007,10,23,11,59,16.40
2007,10,23,12,00,16.50
2007,10,23,12,01,16.50
2007,10,23,12,02,16.50
2007,10,23,12,03,16.40
2007,10,23,12,04,16.30
2007,10,23,12,05,16.30
2007,10,23,12,06,16.20
2007,10,23,12,07,16.20
2007,10,23,12,08,16.30
2007,10,23,12,09,16.40
2007,10,23,12,10,16.50
2007,10,23,12,11,16.60
2007,10,23,12,12,16.60
2007,10,23,12,13,16.60
2007,10,23,12,14,16.70
2007,10,23,12,15,16.80
2007,10,23,12,16,16.80
2007,10,23,12,17,16.90
2007,10,23,12,18,17.00
2007,10,23,12,19,17.00
2007,10,23,12,20,17.10
2007,10,23,12,21,17.20
2007,10,23,12,22,17.10
2007,10,23,12,23,17.10
2007,10,23,12,24,17.00
2007,10,23,12,25,16.90
2007,10,23,12,26,16.80
2007,10,23,12,27,16.70
2007,10,23,12,28,16.70
2007,10,23,12,29,16.60
2007,10,23,12,30,16.50
2007,10,23,12,31,16.50
2007,10,23,12,32,16.60
2007,10,23,12,33,16.70
2007,10,23,12,34,16.80
2007,10,23,12,35,16.90
2007,10,23,12,36,16.80
2007,10,23,12,37,16.80
2007,10,23,12,38,16.90
2007,10,23,12,39,16.90
2007,10,23,12,40,16.90
2007,10,23,12,41,16.90
2007,10,23,12,42,17.00
2007,10,23,12,43,17.00
2007,10,23,12,44,17.10
2007,10,23,12,45,17.10
2007,10,23,12,46,17.20
2007,10,23,12,47,17.20
2007,10,23,12,48,17.10
2007,10,23,12,49,17.10
2007,10,23,12,50,17.10
2007,10,23,12,51,17.10
2007,10,23,12,52,17.10
2007,10,23,12,53,17.30
2007,10,23,12,54,17.30
2007,10,23,12,55,17.40
2007,10,23,12,56,17.50
2007,10,23,12,57,17.50
2007,10,23,12,58,17.50
2007,10,23,12,59,17.50
2007,10,23,13,00,17.50
2007,10,23,13,01,17.40
2007,10,23,13,02,17.40
2007,10,23,13,03,17.40
2007,10,23,13,04,17.40
2007,10,23,13,05,17.50
2007,10,23,13,06,17.50
2007,10,23,13,07,17.50
2007,10,23,13,08,17.40
2007,10,23,13,09,17.40
2007,10,23,13,10,17.30
2007,10,23,13,11,17.40
2007,10,23,13,12,17.40
2007,10,23,13,13,17.40
2007,10,23,13,14,17.40
2007,10,23,13,15,17.40
2007,10,23,13,16,17.40
2007,10,23,13,17,17.40
2007,10,23,13,18,17.40
2007,10,23,13,19,17.40
2007,10,23,13,20,17.40
2007,10,23,13,21,17.40
2007,10,23,13,22,17.40
2007,10,23,13,23,17.30
2007,10,23,13,24,17.30
2007,10,23,13,25,17.40
2007,10,23,13,26,17.60
2007,10,23,13,27,17.60
2007,10,23,13,28,17.60
2007,10,23,13,29,17.60
2007,10,23,13,30,17.60
2007,10,23,13,31,17.50
2007,10,23,13,32,17.60
2007,10,23,13,33,17.60
2007,10,23,13,34,17.60
2007,10,23,13,35,17.70
2007,10,23,13,36,17.70
2007,10,23,13,37,17.80
2007,10,23,13,38,17.90
2007,10,23,13,39,18.00
2007,10,23,13,40,18.10
2007,10,23,13,41,18.20
2007,10,23,13,42,18.30
2007,10,23,13,43,18.40
2007,10,23,13,44,18.40
2007,10,23,13,45,18.50
2007,10,23,13,46,18.50
2007,10,23,13,47,18.50
2007,10,23,13,48,18.50
2007,10,23,13,49,18.50
2007,10,23,13,50,18.40
2007,10,23,13,51,18.50
2007,10,23,13,52,18.50
2007,10,23,13,53,18.40
2007,10,23,13,54,18.30
2007,10,23,13,55,18.30
2007,10,23,13,56,18.30
2007,10,23,13,57,18.30
2007,10,23,13,58,18.30
2007,10,23,13,59,18.30
2007,10,23,14,00,18.30
2007,10,23,14,01,18.30
2007,10,23,14,02,18.30
2007,10,23,14,03,18.30
2007,10,23,14,04,18.30
2007,10,23,14,05,18.30
2007,10,23,14,06,18.30
2007,10,23,14,07,18.40
2007,10,23,14,08,18.40
2007,10,23,14,09,18.30
2007,10,23,14,10,18.30
2007,10,23,14,11,18.30
2007,10,23,14,12,18.30
2007,10,23,14,13,18.30
2007,10,23,14,14,18.30
2007,10,23,14,15,18.30
2007,10,23,14,16,18.40
2007,10,23,14,17,18.50
2007,10,23,14,18,18.50
2007,10,23,14,19,18.50
2007,10,23,14,20,18.60
2007,10,23,14,21,18.60
2007,10,23,14,22,18.70
2007,10,23,14,23,18.70
2007,10,23,14,24,18.60
2007,10,23,14,25,18.60
2007,10,23,14,26,18.60
2007,10,23,14,27,18.60
2007,10,23,14,28,18.70
2007,10,23,14,29,18.70
2007,10,23,14,30,18.70
2007,10,23,14,31,18.70
2007,10,23,14,32,18.70
2007,10,23,14,33,18.70
2007,10,23,14,34,18.70
2007,10,23,14,35,18.70
2007,10,23,14,36,18.70
2007,10,23,14,37,18.70
2007,10,23,14,38,18.70
2007,10,23,14,39,18.80
2007,10,23,14,40,18.80
2007,10,23,14,41,18.80
2007,10,23,14,42,18.80
2007,10,23,14,43,18.80
2007,10,23,14,44,18.90
2007,10,23,14,45,18.90
2007,10,23,14,46,19.00
2007,10,23,14,47,19.00
2007,10,23,14,48,19.10
2007,10,23,14,49,19.10
2007,10,23,14,50,19.10
2007,10,23,14,51,19.20
2007,10,23,14,52,19.20
2007,10,23,14,53,19.20
2007,10,23,14,54,19.20
2007,10,23,14,55,19.20
2007,10,23,14,56,19.10
2007,10,23,14,57,19.10
2007,10,23,14,58,19.10
2007,10,23,14,59,19.10
2007,10,23,15,00,19.10
2007,10,23,15,01,19.10
2007,10,23,15,02,19.10
2007,10,23,15,03,19.10
2007,10,23,15,04,19.10
2007,10,23,15,05,19.10
2007,10,23,15,06,19.00
2007,10,23,15,07,18.90
2007,10,23,15,08,18.90
2007,10,23,15,09,18.90
2007,10,23,15,10,18.90
2007,10,23,15,11,19.00
2007,10,23,15,12,19.00
2007,10,23,15,13,19.10
2007,10,23,15,14,19.20
2007,10,23,15,15,19.30
2007,10,23,15,16,19.40
2007,10,23,15,17,19.40
2007,10,23,15,18,19.40
2007,10,23,15,19,19.50
2007,10,23,15,20,19.60
2007,10,23,15,21,19.60
2007,10,23,15,22,19.70
2007,10,23,15,23,19.70
2007,10,23,15,24,19.70
2007,10,23,15,25,19.70
2007,10,23,15,26,19.60
2007,10,23,15,27,19.60
2007,10,23,15,28,19.50
2007,10,23,15,29,19.50
2007,10,23,15,30,19.50
2007,10,23,15,31,19.50
2007,10,23,15,32,19.60
2007,10,23,15,33,19.60
2007,10,23,15,34,19.70
2007,10,23,15,35,19.70
2007,10,23,15,36,19.70
2007,10,23,15,37,19.70
2007,10,23,15,38,19.70
2007,10,23,15,39,19.80
2007,10,23,15,40,19.80
2007,10,23,15,41,19.70
2007,10,23,15,42,19.70
2007,10,23,15,43,19.70
2007,10,23,15,44,19.70
2007,10,23,15,45,19.60
2007,10,23,15,46,19.60
2007,10,23,15,47,19.60
2007,10,23,15,48,19.50
2007,10,23,15,49,19.50
2007,10,23,15,50,19.60
2007,10,23,15,51,19.60
2007,10,23,15,52,19.60
2007,10,23,15,53,19.60
2007,10,23,15,54,19.60
2007,10,23,15,55,19.50
2007,10,23,15,56,19.50
2007,10,23,15,57,19.50
2007,10,23,15,58,19.50
2007,10,23,15,59,19.50
2007,10,23,16,00,19.50
2007,10,23,16,01,19.50
2007,10,23,16,02,19.40
2007,10,23,16,03,19.40
2007,10,23,16,04,19.40
2007,10,23,16,05,19.50
2007,10,23,16,06,19.40
2007,10,23,16,07,19.30
2007,10,23,16,08,19.20
2007,10,23,16,09,19.10
2007,10,23,16,10,19.10
2007,10,23,16,11,19.10
2007,10,23,16,12,19.10
2007,10,23,16,13,19.20
2007,10,23,16,14,19.30
2007,10,23,16,15,19.30
2007,10,23,16,16,19.30
2007,10,23,16,17,19.30
2007,10,23,16,18,19.30
2007,10,23,16,19,19.30
2007,10,23,16,20,19.30
2007,10,23,16,21,19.20
2007,10,23,16,22,19.10
2007,10,23,16,23,18.90
2007,10,23,16,24,18.90
2007,10,23,16,25,18.80
2007,10,23,16,26,18.70
2007,10,23,16,27,18.70
2007,10,23,16,28,18.60
2007,10,23,16,29,18.40
2007,10,23,16,30,18.30
2007,10,23,16,31,18.20
2007,10,23,16,32,18.10
2007,10,23,16,33,18.00
2007,10,23,16,34,17.90
2007,10,23,16,35,17.90
2007,10,23,16,36,17.80
2007,10,23,16,37,17.70
2007,10,23,16,38,17.70
2007,10,23,16,39,17.70
2007,10,23,16,40,17.60
2007,10,23,16,41,17.60
2007,10,23,16,42,17.60
2007,10,23,16,43,17.50
2007,10,23,16,44,17.50
2007,10,23,16,45,17.40
2007,10,23,16,46,17.30
2007,10,23,16,47,17.30
2007,10,23,16,48,17.20
2007,10,23,16,49,17.20
2007,10,23,16,50,17.20
2007,10,23,16,51,17.10
2007,10,23,16,52,17.10
2007,10,23,16,53,17.10
2007,10,23,16,54,17.00
2007,10,23,16,55,16.90
2007,10,23,16,56,16.80
2007,10,23,16,57,16.70
2007,10,23,16,58,16.60
2007,10,23,16,59,16.50
2007,10,23,17,00,16.40
2007,10,23,17,01,16.30
2007,10,23,17,02,16.30
2007,10,23,17,03,16.20
2007,10,23,17,04,16.20
2007,10,23,17,05,16.10
2007,10,23,17,06,16.10
2007,10,23,17,07,16.00
2007,10,23,17,08,16.00
2007,10,23,17,09,16.00
2007,10,23,17,10,16.00
2007,10,23,17,11,16.00
2007,10,23,17,12,15.90
2007,10,23,17,13,16.00
2007,10,23,17,14,15.90
2007,10,23,17,15,15.90
2007,10,23,17,16,15.90
2007,10,23,17,17,15.90
2007,10,23,17,18,15.80
2007,10,23,17,19,15.80
2007,10,23,17,20,15.70
2007,10,23,17,21,15.60
2007,10,23,17,22,15.60
2007,10,23,17,23,15.60
2007,10,23,17,24,15.60
2007,10,23,17,25,15.60
2007,10,23,17,26,15.50
2007,10,23,17,27,15.50
2007,10,23,17,28,15.40
2007,10,23,17,29,15.40
2007,10,23,17,30,15.40
2007,10,23,17,31,15.40
2007,10,23,17,32,15.40
2007,10,23,17,33,15.30
2007,10,23,17,34,15.30
2007,10,23,17,35,15.30
2007,10,23,17,36,15.30
2007,10,23,17,37,15.20
2007,10,23,17,38,15.20
2007,10,23,17,39,15.20
2007,10,23,17,40,15.20
2007,10,23,17,41,15.20
2007,10,23,17,42,15.20
2007,10,23,17,43,15.20
2007,10,23,17,44,15.20
2007,10,23,17,45,15.20
2007,10,23,17,46,15.20
2007,10,23,17,47,15.20
2007,10,23,17,48,15.20
2007,10,23,17,49,15.20
2007,10,23,17,50,15.20
2007,10,23,17,51,15.10
2007,10,23,17,52,15.10
2007,10,23,17,53,15.10
2007,10,23,17,54,15.10
2007,10,23,17,55,15.10
2007,10,23,17,56,15.10
2007,10,23,17,57,15.00
2007,10,23,17,58,15.00
2007,10,23,17,59,15.00
2007,10,23,18,00,15.00
2007,10,23,18,01,15.00
2007,10,23,18,02,15.00
2007,10,23,18,03,15.00
2007,10,23,18,04,15.00
2007,10,23,18,05,15.00
2007,10,23,18,06,15.00
2007,10,23,18,07,15.00